EWG7PL EDDH-LSZH

Flight info

Callsign EWG7PL
Flight time N/A
Altitude 35000
Route IDEKO7G IDEKO N850 ROBEG DCT SWALM/N0433F340 DCT OMOGI/N0435F350 T721 LAMGO/N0382F230 T721 RILAX
Aircraft A320/M-SDE3FGHIRWY/LB1

Departure

Time 2026-04-25 13:41
Airport Hamburg Helmut Schmidt Airport (EDDH)

Arrival

Time N/A
Airport Zürich Airport (LSZH)
Time Latitude Longitude Altitude Speed Heading
2026-04-25 13:07 53.63294 10.00358 51 ft 0 kts 87°
2026-04-25 13:32 53.63293 10.00332 51 ft 4 kts 87°
2026-04-25 13:32 53.63292 10.00287 51 ft 4 kts 87°
2026-04-25 13:32 53.63291 10.00242 51 ft 4 kts 87°
2026-04-25 13:33 53.63289 10.00205 51 ft 4 kts 96°
2026-04-25 13:33 53.63299 10.00174 48 ft 4 kts 162°
2026-04-25 13:33 53.63319 10.00169 48 ft 1 kts 176°
2026-04-25 13:36 53.63312 10.00170 45 ft 5 kts 176°
2026-04-25 13:36 53.63248 10.00177 51 ft 10 kts 176°
2026-04-25 13:37 53.63180 10.00184 51 ft 9 kts 176°
2026-04-25 13:37 53.63119 10.00191 51 ft 8 kts 175°
2026-04-25 13:37 53.63068 10.00180 47 ft 7 kts 209°
2026-04-25 13:37 53.63029 10.00140 51 ft 7 kts 212°
2026-04-25 13:38 53.62984 10.00092 51 ft 8 kts 212°
2026-04-25 13:38 53.62933 10.00035 50 ft 9 kts 222°
2026-04-25 13:38 53.62901 9.99931 49 ft 8 kts 243°
2026-04-25 13:38 53.62898 9.99918 50 ft 0 kts 243°
2026-04-25 13:39 53.62896 9.99914 50 ft 3 kts 243°
2026-04-25 13:39 53.62882 9.99867 50 ft 7 kts 243°
2026-04-25 13:39 53.62858 9.99778 48 ft 10 kts 260°
2026-04-25 13:40 53.62902 9.99710 50 ft 3 kts 334°
2026-04-25 13:40 53.62925 9.99690 50 ft 25 kts 334°
2026-04-25 13:40 53.63309 9.99362 52 ft 96 kts 332°
2026-04-25 13:40 53.64080 9.98695 54 ft 150 kts 332°
2026-04-25 13:41 53.65062 9.97845 580 ft 159 kts 328°
2026-04-25 13:41 53.66060 9.97037 1433 ft 159 kts 327°
2026-04-25 13:41 53.67099 9.96158 1935 ft 178 kts 327°
2026-04-25 13:41 53.68253 9.95151 2582 ft 191 kts 327°
2026-04-25 13:42 53.69440 9.94124 3476 ft 192 kts 327°
2026-04-25 13:42 53.70619 9.93081 4381 ft 191 kts 321°
2026-04-25 13:42 53.71433 9.91425 5275 ft 185 kts 290°
2026-04-25 13:42 53.71474 9.89126 5756 ft 217 kts 261°
2026-04-25 13:43 53.70992 9.86558 6303 ft 238 kts 258°
2026-04-25 13:43 53.70452 9.83878 7133 ft 244 kts 258°
2026-04-25 13:43 53.69892 9.81155 8035 ft 247 kts 258°
2026-04-25 13:43 53.69323 9.78410 8969 ft 250 kts 256°
2026-04-25 13:44 53.68330 9.75888 9854 ft 272 kts 232°
2026-04-25 13:44 53.66591 9.74289 10555 ft 305 kts 207°
2026-04-25 13:44 53.64445 9.73315 10821 ft 333 kts 202°
2026-04-25 13:44 53.62120 9.72453 11310 ft 348 kts 200°
2026-04-25 13:45 53.60504 9.71916 11789 ft 353 kts 199°
2026-04-25 13:45 53.57294 9.70882 12814 ft 356 kts 199°
2026-04-25 13:45 53.54851 9.70069 13603 ft 359 kts 199°
2026-04-25 13:45 53.52390 9.69216 14304 ft 363 kts 200°
2026-04-25 13:46 53.49908 9.68328 14961 ft 367 kts 200°
2026-04-25 13:46 53.47399 9.67417 15612 ft 371 kts 200°
2026-04-25 13:46 53.44867 9.66492 16260 ft 374 kts 200°
2026-04-25 13:46 53.42311 9.65555 16907 ft 378 kts 200°
2026-04-25 13:47 53.39725 9.64608 17534 ft 382 kts 200°
2026-04-25 13:47 53.37112 9.63658 18173 ft 386 kts 200°
2026-04-25 13:47 53.34471 9.62702 18730 ft 390 kts 199°
2026-04-25 13:47 53.31811 9.61745 19299 ft 393 kts 199°
2026-04-25 13:48 53.29120 9.60776 19868 ft 396 kts 199°
2026-04-25 13:48 53.26410 9.59802 20435 ft 400 kts 199°
2026-04-25 13:48 53.23681 9.58827 20999 ft 403 kts 199°
2026-04-25 13:48 53.20927 9.57844 21559 ft 406 kts 199°
2026-04-25 13:49 53.18150 9.56849 22121 ft 410 kts 199°
2026-04-25 13:49 53.15354 9.55843 22678 ft 413 kts 199°
2026-04-25 13:49 53.12526 9.54828 23211 ft 417 kts 199°
2026-04-25 13:49 53.09680 9.53808 23720 ft 420 kts 199°
2026-04-25 13:50 53.06815 9.52786 24149 ft 423 kts 198°
2026-04-25 13:50 53.03956 9.51770 24561 ft 426 kts 198°
2026-04-25 13:50 53.01044 9.50740 24966 ft 429 kts 198°
2026-04-25 13:50 52.98116 9.49704 25371 ft 432 kts 198°
2026-04-25 13:51 52.95163 9.48657 25754 ft 435 kts 198°
2026-04-25 13:51 52.92192 9.47602 26132 ft 438 kts 198°
2026-04-25 13:51 52.89199 9.46539 26508 ft 441 kts 198°
2026-04-25 13:51 52.86191 9.45477 26852 ft 444 kts 198°
2026-04-25 13:52 52.83164 9.44414 27229 ft 446 kts 198°
2026-04-25 13:52 52.80115 9.43343 27596 ft 449 kts 198°
2026-04-25 13:52 52.77049 9.42268 27947 ft 452 kts 198°
2026-04-25 13:52 52.73965 9.41191 28294 ft 455 kts 198°
2026-04-25 13:53 52.70858 9.40106 28631 ft 457 kts 198°
2026-04-25 13:53 52.67743 9.39016 28963 ft 460 kts 198°
2026-04-25 13:53 52.64599 9.37919 29284 ft 462 kts 198°
2026-04-25 13:53 52.61438 9.36840 29586 ft 465 kts 197°
2026-04-25 13:54 52.58510 9.35956 29880 ft 469 kts 196°